FENGYUN 1C DEB, 31455

Orbit data source: Space-Track

FENGYUN 1C DEB, 31455 is space debris in SSO originally from a launch on Mon, 10 May 1999 UTC launched from the Taiyaun Space Center, China (TSC). Fengyun 1C debris stems from the Chinese weather satellite Fengyun-1C, which was intentionally destroyed by a Chinese anti-satellite missile in 2007. This event dramatically increased the amount of space debris, with thousands of trackable fragments posing hazards to satellites and human spaceflight. The Fengyun 1C debris cloud has become a focal point in discussions about space sustainability and the need for international regulations to prevent the creation of new debris.

Loading next visibility...
Identifier
31455, 1999-025BUT
Orbit
SSO
Country
Flag of CNCN / PRC
Related business
Manufacturer
Unknown
Mission
Spacecraft
Bus & Motor
Unknown
Mass
Unknown
Launch date (UTC)
1999-05-10 (27 years ago)
Launch vehicle
Unknown
Launch site
Taiyaun Space Center, China (TSC)
Object type
Payload
Rocket body
Debris
Shape & HBR
Unknown shape, 0.1 m
Radar Cross Section
Small (<0.1 m²)

Expand to show TLE details & history
Last TLE update: 1 day ago

TLE from 1 day ago
0 FENGYUN 1C DEB
1 31455U 99025BUT 26145.22540788  .00000321  00000-0  16141-3 0  9999
2 31455  98.5872 131.5082 0216304 304.6775  53.4181 14.11638267984100
Epoch: 2026-05-25T05:24Z
TLE epoch observation values (Epoch: 2026-05-25T05:24:35.240Z)
Latitude
-0.00007°
Longitude
167.54512°
Altitude
765.66 km
Speed
7.518 km/s
True Right ascension
08h 46m 01s
True Declination
0° 00' 00"
Sunlit
Object was in daylight at epoch
Visualization orbit readout
Latitude
Unknown
Longitude
Unknown
Altitude
Unknown
Speed
Unknown
Apparent Right ascension
Unknown
Apparent Declination
Unknown
Sunlit
N/A
Visualization observer readout
Local Sidereal Time
18:19:53
Azimuth
Unknown
Elevation
Unknown
Doppler factor
Unknown
Orbital elements
Apogee altitude
1,007.301 km
Perigee altitude
694.565 km
Semi-major axis
7,229.07 km
Eccentricity
0.02163
Inclination
98.5872°
RAAN
131.5082°
Arg. of periapsis
304.6775°
True anomaly
55.44063°
Mean anomaly
53.4181°
Eccentric anomaly
54.42613°
Mean motion
3.53118 °/min
Orbital period
101.95 mins
BSTAR
0.00016141
Loading maneuver chart data...
Computing Atmospheric mass density...

Documentation

Showing up to 5 results
|